www.pogodaiklimat.ru

Погода и климат >> Архив погоды >> Россия >> Дагестан >> Изберг


ПОГОДА в Изберге

  • Прогноз погоды в Изберге
  • Монитор погоды в Изберге

АРХИВ ПОГОДЫ в Изберге

Время (UTC), дата Ветер
(напр.,м/с)
 
Видим.   Явления Облачность Т
(С)
Тd
(С)
f
(%)
Тe
(С)
Тes
(С)
Комфортность P
(гПа)
Po
(гПа)
Тmin
(С)
Tmax
(С)
R
(мм)
R24
(мм)
S
(см)
09 15.09 СВ 3 50 км 8/1 600 м
[Cu hum Ac As Ci fib]
+23.3 +15.9 63 +28 +34 душно 1018.0 1020.1
12 15.09 СВ 1 50 км 10/1 600 м
[Cu hum Ac As]
+23.1 +15.0 60 +27 +29 душно 1017.3 1019.4
15 15.09 ЮВ 2 50 км 10/6 600 м
[Cu hum Ac trans]
+22.4 +16.7 70 +27 +27 душно 1017.4 1019.5 +24.0
18 15.09 ЮЗ 3 20 км 10/3 600 м
[Cu hum Ac As]
+21.6 +13.0 58 +24 +24 комфорт 1018.8 1020.9
21 15.09 ЮЗ 4 20 км 6/0
[Ac trans Ci fib]
+21.6 +11.5 53 +24 +24 комфорт 1018.5 1020.6
00 16.09 ЮЗ 3 20 км 6/0
[Ac trans Ci fib]
+21.0 +8.7 45 +23 +23 комфорт 1018.4 1020.5
03 16.09 ЮЗ 4 50 км 1/0
[Ci fib]
+19.3 +8.7 50 +20 +20 1018.6 1020.7 +19.1
06 16.09 СВ 1 50 км 6/0
[Ci fib]
+24.4 +17.0 63 +28 +35 душно 1018.3 1020.4
09 16.09 В 2 20 км 10/3 600 м
[Cu hum Ac cast Cs]
+24.3 +16.6 62 +28 +32 душно 1015.6 1017.7
12 16.09 ЮВ 7
{12}
50 км 10/1 600 м
[Cu med, cong Ac lent Cc]
+24.4 +17.4 65 +28 +29 душно 1013.5 1015.6
15 16.09 ЮВ 4 50 км 10/3 600 м
[Cb calv Ac cast Cs]
+22.4 +19.3 83 +28 +28 душно 1012.2 1014.3 +26.4
18 16.09 ЮЗ 2 20 км 8/0
[Ac trans Ci fib]
+21.1 +18.2 84 +25 +25 комфорт 1012.1 1014.0
21 16.09 СЗ 3 20 км 8/0
[Ac trans Ci fib]
+20.2 +17.3 83 +24 +24 комфорт 1010.9 1013.0
00 17.09 З 4 20 км 10/0
[Ac und]
+21.6 +17.3 77 +26 +26 душно 1010.6 1012.7
03 17.09 СЗ 4 50 км 10/3 600 м
[Cu med, cong Ac trans Ci fib]
+20.8 +17.4 81 +25 +25 комфорт 1011.1 1013.2 +20.2
06 17.09 С 4 20 км 8/3 600 м
[Cu med, cong Ac trans Ci fib]
+23.8 +15.9 61 +27 +29 жарко 1011.2 1013.3 +19.0
09 17.09 С 5 20 км 3/3 600 м
[Cu hum]
+24.2 +16.3 61 +28 +32 душно 1009.4 1011.4
12 17.09 С 3 20 км ясно +23.9 +17.6 68 +28 +33 душно 1008.3 1010.4
15 17.09 СЗ 3 20 км 6/4 600 м
[Cu med, cong Ac lent]
+22.6 +18.2 76 +28 +28 душно 1009.3 1011.4 +24.5
18 17.09 С 1 20 км 8/3 600 м
[Cu hum Ac lent Ci fib]
+22.4 +18.6 79 +28 +28 душно 1010.0 1012.1
21 17.09 СЗ 3 20 км 10/0
[Ac und]
+22.1 +15.5 66 +26 +26 душно 1010.8 1012.9
00 18.09 З 2 20 км ясно +20.0 +11.9 60 +22 +22 комфорт 1011.6 1013.7
03 18.09 ЮЗ 3 20 км ясно +17.4 +11.8 70 +17 +17 1013.6 1015.7 +17.4
06 18.09 СВ 2 20 км ясно +23.6 +13.7 54 +26 +33 жарко 1015.2 1017.3
09 18.09 С 4 20 км 1/1 600 м
[Cu med, cong]
+23.9 +14.6 56 +27 +34 жарко 1015.2 1017.2
12 18.09 В 3 20 км 4/1 600 м
[Cu med, cong Ci fib]
+23.7 +15.8 61 +27 +31 жарко 1014.6 1016.7
15 18.09 ЮВ 6 20 км 8/3 600 м
[Cu hum Ac trans Ci]
+22.7 +16.9 70 +27 +27 душно 1014.1 1016.2 +24.3
18 18.09 Ю 3 20 км 9/3 600 м
[Cu hum Ci]
+21.6 +17.9 79 +26 +26 душно 1013.1 1015.2
21 18.09 Ю 3 20 км 9/0
[Cs]
+19.8 +15.6 77 +22 +22 комфорт 1011.8 1013.9
00 19.09 З 2 20 км 8/1 600 м
[Cu hum Ci]
+18.0 +14.1 78 +19 +19 1011.8 1013.9
03 19.09 З 3 20 км 10/3 600 м
[Cu hum Cs]
+20.3 +15.4 73 +23 +23 комфорт 1013.8 1015.9 +17.8
06 19.09 СЗ 10-14
{14}
20 км 4/1 600 м
[Cu hum Ci fib]
+23.6 +13.0 51 +26 +26 жарко 1016.7 1018.8
09 19.09 СЗ 9-13
{19}
20 км 3/1 600 м
[Cu hum Ac trans Ci fib]
+24.2 +8.3 36 +25 +26 комфорт 1018.5 1020.6
12 19.09 С 6
{13}
50 км 6/1 600 м
[Cu hum Ac trans Ci fib]
+23.0 +10.9 46 +25 +26 комфорт 1019.1 1021.2
15 19.09 С 2 50 км 10/6 600 м
[Cu hum Ac trans]
+21.4 +12.1 55 +24 +24 комфорт 1020.0 1022.1 +24.5
18 19.09 ЮЗ 1 20 км {метель} 10/0
[Ac und]
+20.1 +12.7 62 +23 +23 комфорт 1020.5 1022.6
21 19.09 ЮЗ 2 20 км 10/0
[]
+18.1 +11.9 67 +19 +19 1019.3 1021.4
00 20.09 ЮЗ 2 20 км 10/6 600 м
[Cu hum Ac trans]
+17.3 +11.9 71 +18 +18 1018.2 1020.3
03 20.09 ЮЗ 3 20 км 10/10 600 м
[Cb calv]
+18.1 +11.2 64 +18 +18 1017.7 1019.8 +17.0
06 20.09 ЮВ 4 20 км 10/1 600 м
[Cu hum Ac As Ci sp]
+22.3 +14.1 60 +26 +27 жарко 1016.7 1018.8
09 20.09 В 7 20 км 1/1 600 м
[Cu med, cong]
+23.2 +15.4 62 +27 +30 душно 1013.6 1015.7
12 20.09 ЮВ 6 20 км 8/1 600 м
[Cu med, cong Ac trans Cs]
+23.1 +15.9 64 +28 +29 душно 1011.8 1013.9
15 20.09 ЮВ 2 20 км 10/3 600 м
[Cu hum Cs]
+21.1 +15.3 69 +24 +24 комфорт 1010.0 1012.1 +23.4
18 20.09 ЮЗ 2 20 км 8/0
[Cs]
+17.7 +14.3 80 +18 +18 1008.5 1010.6
21 20.09 ЮЗ 3 20 км ясно +16.8 +13.7 82 +17 +17 1005.2 1007.4
00 21.09 СЗ 5 н/о н/о +18.4 +14.1 76 +19 +19 1005.5 1007.6
03 21.09 СЗ 5
{11}
20 км 10/0
[Cs]
+19.2 +14.3 73 +20 +20 1006.5 1008.6 +15.8
06 21.09 СЗ 10-16
{19}
20 км 8/0
[Ac lent Cs]
+17.6 +10.5 63 +16 +16 1009.4 1011.5
09 21.09 СЗ 11-17
{19}
20 км 3/3 600 м
[Cu hum Ac lent]
+20.9 +9.2 47 +22 +22 комфорт 1010.0 1012.1
12 21.09 СЗ 10-15
{19}
20 км 10/3 600 м
[Cu hum Ac und]
+16.7 +7.2 53 +15 +15 1013.2 1015.4
15 21.09 СЗ 7-13
{18}
20 км 10/3 600 м
[Cu hum Ac und]
+14.9 +7.2 60 +13 +13 1015.9 1018.1 +21.3
18 21.09 З 4
{13}
10 км слаб. ливневой дождь 10/10 600 м
[Cb cap]
+12.6 +8.5 76 +11 +11 1018.7 1020.9
21 21.09 З 3 20 км {ливн. осадки} 10/10 600 м
[Cb calv]
+12.7 +7.9 73 +11 +11 1019.2 1021.4
00 22.09 ЮЗ 3 20 км {ливн. осадки} 10/3 600 м
[Cu med, cong Ac und]
+12.8 +8.0 73 +11 +11 1019.0 1020.9
03 22.09 З 2 20 км 8/8 600 м
[Cu med, cong]
+12.8 +7.0 68 +12 +12 1020.0 1022.9 +12.5 4
06 22.09 СЗ 4 50 км 8/3 600 м
[Cu med, cong Ac und]
+15.2 +6.1 55 +14 +16 1023.2 1025.1

 

Местоположение метеостанции Изберг (Дагестан, Россия): широта 42.53 долгота 47.92 высота над уровнем моря -16 м.

В архиве по умолчанию представлена погода в Изберге за последнюю неделю. Архивные данные за месяц целиком и за предыдущие месяцы, начиная с января 2011 года, Вы можете получить, выбрав интересующий диапазон дат из раскрывающегося списка и нажав кнопку "Ввод!".


*Определитесь, кто Вы:
робот инопланетянин человек

Внимание! Время в таблицах - всемирное. Для получения местного времени необходимо прибавить поправку, которая равна 3 ч.

Смотрите также архив погоды в соседних городах и на ближайших метеорологических станциях:

Погода в Сергокале (Дагестан, Россия) (22 км)
Погода в Дербенте (Дагестан, Россия) (60 км)
Погода в Махачкале (Дагестан, Россия) (65 км)
Погода в Куппе (Дагестан, Россия) (68 км)
Погода в Буйнакске (Дагестан, Россия) (73 км)
Погода в Гунибе (Дагестан, Россия) (79 км)
Погода в Кумухе (Дагестан, Россия) (80 км)
Погода в Касумкенте (Дагестан, Россия) (98 км)
Погода в Хунзахе (Дагестан, Россия) (100 км)
Погода в Ахты (Дагестан, Россия) (119 км)

Пояснения к столбцам:

Ветер - указаны скорость ветра в м/с - средняя за 10 мин, порывы в срок и между сроками (в фигурных скобках) и направление, откуда дует ветер: С - северный, СВ - северо-восточный, В - восточный, ЮВ - юго-восточный, Ю - южный, ЮЗ - юго-западный, З - западный, СЗ - северо-западный.
Видимость - горизонтальная дальность видимости в метрах или километрах. При видимости от 1 до 10 км при отсутствии осадков обычно наблюдается дымка, при ухудшении видимости до 1 км и менее - туман. В сухую погоду видимость может ухудшаться дымом, пылью или мглою.
Явления - указаны атмосферные явления, наблюдавшиеся в срок или в последний час перед сроком; фигурными скобками обозначены явления, наблюдавшиеся между сроками (за 1-3 часа до срока); квадратными скобками обозначены град или гололедные отложения с указанием их диаметра в мм.
Облачность - указаны через наклонную черту общая и нижняя облачность в баллах и высота нижней границы облаков в метрах; квадратными скобками обозначены формы облаков: Ci - перистые, Cs - перисто-слоистые, Cc - перисто-кучевые, Ac - высококучевые, As - высокослоистые, Sc - слоисто-кучевые, Ns - слоисто-дождевые, Cu - кучевые, Cb - кучево-дождевые. Подробнее классификацию облаков см. в Атласе облаков (PDF).
T - Температура воздуха - температура, измеренная на высоте 2 м над землей.
Td - Температура точки росы - температура, при понижении до которой содержащийся в воздухе водяной пар достигнет насыщения.
f - Относительная влажность воздуха - влажноcть воздуха, измеренная на высоте 2 м над землей.
Te - Эффективная температура - температура, которую ощущает одетый по сезону человек в тени. Характеристика душности погоды. При расчете учитывается влияние влажности воздуха и скорости ветра на теплоощущения человека.
Tes - Эффективная температура на солнце - температура, которую ощущает человек, с поправкой на солнечный нагрев. Характеристика знойности погоды. Зависит от высоты солнца над горизонтом, облачности и скорости ветра. Ночью, в пасмурную погоду, а также при ветре 12 м/с и более поправка равна нулю.
P - Атмосферное давление - приведенное к уровню моря атмосферное давление.
Po - Атмосферное давление - измеренное на уровне метеостанции атмосферное давление.
Tmin - Минимальная температура - минимум температуры воздуха на высоте 2 м над землей.
Tmax - Максимальная температура - максимум температуры воздуха на высоте 2 м над землей.
R - Количество осадков - Количество выпавших осадков за период времени, мм. При наведении курсора мыши на число - период времени, за который выпало указанное количество осадков.
R24 - Количество осадков - Количество выпавших осадков за 24 часа, мм.
S - Снежный покров - Высота снежного покрова, см. При наведении курсора мыши на число - состояние снежного покрова и степень покрытия местности в баллах.